Port Heiden, AK

8:25 PM AKDT on April 25, 2018 (GMT -0800)
Port Heiden

Weather History for PAPH - September, 2013

Change the Weather History Date:

Tuesday, September 17, 2013

  Actual Average Record
Temperature  
Mean Temperature 47 °F -  
Max Temperature 52 °F 50 °F 62 °F (2010)
Min Temperature 42 °F 40 °F 28 °F (2007)
Degree Days  
Heating Degree Days 18    
Moisture  
Dew Point 39 °F    
Average Humidity 69    
Maximum Humidity 82    
Minimum Humidity 46    
Precipitation  
Precipitation 0.01 in - - ()
Sea Level Pressure  
Sea Level Pressure 29.71 in    
Wind  
Wind Speed 17 mph (WNW)    
Max Wind Speed 23 mph    
Max Gust Speed 29 mph    
Visibility 10 miles    
Events      
Averages and records for this station are not official NWS values.
T = Trace of Precipitation, MM = Missing Value Source: NWS Daily Summary

Daily Weather History Graph

Daily Weather History Graph

Search for Another Location

Airport or City:

Astronomy

Sep. 17, 2013 Rise Set
Actual Time 8:10 AM AKDT 8:45 PM AKDT
Civil Twilight 7:31 AM AKDT 9:24 PM AKDT
Nautical Twilight 6:45 AM AKDT 10:10 PM AKDT
Astronomical Twilight 5:55 AM AKDT 11:00 PM AKDT
Moon 7:46 PM AKDT (9/17) 6:04 AM AKDT (9/17)
Length of Visible Light 13h 52m
Length of Day
12h 35m
Waxing Gibbous, 96% of the Moon is Illuminated
Sep 17
Waxing Gibbous
Sep 19
Full
Sep 26
Last Quarter
Oct 4
New
Oct 11
First Quarter

Hourly Weather History & Observations

Time (AKDT) Temp. Windchill Dew Point Humidity Pressure Visibility Wind Dir Wind Speed Gust Speed Precip Events Conditions
12:16 AM 48.2 °F - 41.0 °F 76% 29.79 in 8.0 mi West 20.7 mph 27.6 mph N/A   Overcast
12:36 AM 48.2 °F - 41.0 °F 76% 29.79 in 9.0 mi West 19.6 mph 23.0 mph N/A   Overcast
12:56 AM 48.2 °F - 42.8 °F 82% 29.79 in 10.0 mi West 18.4 mph 24.2 mph N/A   Overcast
1:16 AM 48.2 °F - 41.0 °F 76% 29.79 in 10.0 mi West 23.0 mph 28.8 mph N/A   Overcast
1:36 AM 48.2 °F - 41.0 °F 76% 29.78 in 10.0 mi WNW 18.4 mph 26.5 mph N/A   Overcast
1:56 AM 48.2 °F - 41.0 °F 76% 29.77 in 9.0 mi West 23.0 mph - N/A   Overcast
2:16 AM 48.2 °F - 41.0 °F 76% 29.78 in 10.0 mi WNW 20.7 mph 27.6 mph N/A   Overcast
2:36 AM 48.2 °F - 41.0 °F 76% 29.77 in 10.0 mi West 19.6 mph - N/A   Overcast
2:56 AM 48.2 °F - 41.0 °F 76% 29.77 in 10.0 mi West 20.7 mph 25.3 mph N/A   Overcast
3:16 AM 48.2 °F - 41.0 °F 76% 29.76 in 10.0 mi West 20.7 mph 26.5 mph N/A   Overcast
3:36 AM 48.2 °F - 41.0 °F 76% 29.76 in 10.0 mi West 17.3 mph 26.5 mph N/A   Overcast
3:56 AM 48.2 °F - 41.0 °F 76% 29.76 in 10.0 mi West 16.1 mph 23.0 mph N/A   Overcast
4:16 AM 48.2 °F - 41.0 °F 76% 29.75 in 10.0 mi West 19.6 mph 23.0 mph N/A   Overcast
4:36 AM 48.2 °F - 41.0 °F 76% 29.75 in 10.0 mi WNW 16.1 mph 23.0 mph N/A   Overcast
4:56 AM 48.2 °F - 41.0 °F 76% 29.74 in 10.0 mi West 16.1 mph 21.9 mph N/A   Overcast
5:16 AM 48.2 °F - 41.0 °F 76% 29.74 in 10.0 mi West 17.3 mph 23.0 mph N/A   Overcast
5:36 AM 48.2 °F - 41.0 °F 76% 29.74 in 10.0 mi West 17.3 mph - N/A   Overcast
5:56 AM 48.2 °F - 41.0 °F 76% 29.73 in 10.0 mi West 13.8 mph - N/A   Overcast
6:16 AM 48.2 °F - 41.0 °F 76% 29.73 in 10.0 mi West 16.1 mph 21.9 mph N/A   Overcast
6:36 AM 48.2 °F - 41.0 °F 76% 29.72 in 10.0 mi West 17.3 mph 23.0 mph N/A   Overcast
6:56 AM 48.2 °F - 41.0 °F 76% 29.72 in 10.0 mi West 13.8 mph 20.7 mph N/A   Overcast
7:16 AM 48.2 °F - 41.0 °F 76% 29.71 in 10.0 mi West 15.0 mph - N/A   Overcast
7:36 AM 48.2 °F - 41.0 °F 76% 29.71 in 10.0 mi WNW 13.8 mph 21.9 mph N/A   Overcast
7:56 AM 48.2 °F - 41.0 °F 76% 29.70 in 10.0 mi WNW 16.1 mph 23.0 mph N/A   Overcast
8:16 AM 48.2 °F - 39.2 °F 71% 29.70 in 10.0 mi WNW 15.0 mph - N/A   Overcast
8:36 AM 48.2 °F - 41.0 °F 76% 29.69 in 10.0 mi WNW 13.8 mph 20.7 mph N/A   Overcast
8:56 AM 48.2 °F - 41.0 °F 76% 29.69 in 10.0 mi WNW 16.1 mph - N/A   Overcast
9:16 AM 48.2 °F - 41.0 °F 76% 29.69 in 10.0 mi WNW 13.8 mph - N/A   Overcast
9:36 AM 48.2 °F - 41.0 °F 76% 29.69 in 10.0 mi WNW 15.0 mph 20.7 mph N/A   Overcast
9:56 AM 48.2 °F - 42.8 °F 82% 29.68 in 10.0 mi WNW 15.0 mph - N/A   Overcast
10:16 AM 48.2 °F - 41.0 °F 76% 29.68 in 10.0 mi WNW 13.8 mph 19.6 mph N/A   Overcast
10:36 AM 50.0 °F - 42.8 °F 76% 29.67 in 10.0 mi NW 17.3 mph - N/A   Mostly Cloudy
10:56 AM 50.0 °F - 42.8 °F 76% 29.67 in 10.0 mi NW 18.4 mph 23.0 mph N/A   Mostly Cloudy
11:16 AM 51.8 °F - 42.8 °F 71% 29.67 in 10.0 mi NW 18.4 mph - N/A   Mostly Cloudy
11:36 AM 51.8 °F - 41.0 °F 67% 29.66 in 10.0 mi WNW 18.4 mph 21.9 mph N/A   Scattered Clouds
11:56 AM 51.8 °F - 41.0 °F 67% 29.67 in 10.0 mi NW 19.6 mph - N/A   Mostly Cloudy
12:16 PM 51.8 °F - 41.0 °F 67% 29.67 in 10.0 mi NW 18.4 mph 21.9 mph N/A   Overcast
12:36 PM 51.8 °F - 42.8 °F 71% 29.66 in 10.0 mi NW 18.4 mph 24.2 mph N/A   Mostly Cloudy
12:56 PM 51.8 °F - 41.0 °F 67% 29.67 in 10.0 mi WNW 18.4 mph 21.9 mph N/A   Mostly Cloudy
1:16 PM 51.8 °F - 42.8 °F 71% 29.67 in 10.0 mi NW 18.4 mph 23.0 mph N/A   Mostly Cloudy
1:36 PM 51.8 °F - 41.0 °F 67% 29.66 in 10.0 mi NW 17.3 mph - N/A   Overcast
1:56 PM 50.0 °F - 41.0 °F 71% 29.66 in 10.0 mi NW 20.7 mph 24.2 mph N/A   Mostly Cloudy
2:16 PM 51.8 °F - 41.0 °F 67% 29.66 in 10.0 mi NW 19.6 mph 24.2 mph N/A   Mostly Cloudy
2:36 PM 51.8 °F - 39.2 °F 62% 29.66 in 10.0 mi NW 20.7 mph - N/A   Mostly Cloudy
2:56 PM 51.8 °F - 39.2 °F 62% 29.66 in 10.0 mi NW 18.4 mph 23.0 mph N/A   Mostly Cloudy
3:16 PM 51.8 °F - 39.2 °F 62% 29.65 in 10.0 mi NW 16.1 mph 20.7 mph N/A   Mostly Cloudy
3:36 PM 51.8 °F - 37.4 °F 58% 29.65 in 10.0 mi NW 17.3 mph - N/A   Scattered Clouds
3:56 PM 51.8 °F - 37.4 °F 58% 29.65 in 10.0 mi NW 16.1 mph 21.9 mph N/A   Mostly Cloudy
4:16 PM 51.8 °F - 37.4 °F 58% 29.65 in 10.0 mi NW 18.4 mph - N/A   Mostly Cloudy
4:36 PM 51.8 °F - 37.4 °F 58% 29.65 in 10.0 mi NW 17.3 mph 20.7 mph N/A   Scattered Clouds
4:56 PM 51.8 °F - 37.4 °F 58% 29.65 in 10.0 mi NW 15.0 mph 20.7 mph N/A   Clear
5:16 PM 51.8 °F - 37.4 °F 58% 29.65 in 10.0 mi NW 16.1 mph - N/A   Clear
5:36 PM 51.8 °F - 37.4 °F 58% 29.66 in 10.0 mi NNW 11.5 mph - N/A   Partly Cloudy
5:56 PM 50.0 °F - 35.6 °F 58% 29.66 in 10.0 mi NW 11.5 mph - N/A   Scattered Clouds
6:16 PM 50.0 °F - 35.6 °F 58% 29.66 in 10.0 mi NW 10.4 mph - N/A   Mostly Cloudy
6:36 PM 50.0 °F - 35.6 °F 58% 29.67 in 10.0 mi NNW 11.5 mph - N/A   Overcast
6:56 PM 50.0 °F - 33.8 °F 54% 29.67 in 10.0 mi NNW 8.1 mph - N/A   Overcast
7:16 PM 50.0 °F - 33.8 °F 54% 29.68 in 10.0 mi NNW 8.1 mph - N/A   Overcast
7:36 PM 48.2 °F - 35.6 °F 62% 29.68 in 10.0 mi NNW 5.8 mph - N/A   Overcast
7:56 PM 48.2 °F - 35.6 °F 62% 29.69 in 10.0 mi NNW 6.9 mph - N/A   Scattered Clouds
8:16 PM 48.2 °F - 35.6 °F 62% 29.69 in 10.0 mi NW 8.1 mph - N/A   Clear
8:36 PM 46.4 °F 41.9 °F 33.8 °F 62% 29.70 in 10.0 mi NW 9.2 mph - N/A   Clear
8:56 PM 44.6 °F 40.7 °F 33.8 °F 66% 29.70 in 10.0 mi NW 6.9 mph - N/A   Clear
9:16 PM 44.6 °F 40.2 °F 33.8 °F 66% 29.70 in 10.0 mi NW 8.1 mph - N/A   Clear
9:36 PM 42.8 °F 38.6 °F 33.8 °F 70% 29.70 in 10.0 mi NW 6.9 mph - N/A   Clear
9:56 PM 42.8 °F 38.6 °F 33.8 °F 70% 29.72 in 10.0 mi NW 6.9 mph - N/A   Clear
10:16 PM 42.8 °F 38.6 °F 33.8 °F 70% 29.73 in 10.0 mi NW 6.9 mph - N/A   Clear
10:36 PM 42.8 °F 38.0 °F 32.0 °F 66% 29.74 in 10.0 mi NW 8.1 mph - N/A   Clear
10:56 PM 42.8 °F 38.0 °F 32.0 °F 66% 29.74 in 10.0 mi NW 8.1 mph - N/A   Clear
11:16 PM 42.8 °F 37.5 °F 35.6 °F 76% 29.75 in 10.0 mi NW 9.2 mph - N/A   Clear
11:36 PM 44.6 °F 39.7 °F 37.4 °F 76% 29.75 in 10.0 mi WNW 9.2 mph - N/A   Clear
11:56 PM 46.4 °F 41.9 °F 37.4 °F 71% 29.76 in 10.0 mi NW 9.2 mph - N/A   Clear